owner,sensor,date,latitude,longitude,vertical_datum,direction_of_sea_water_velocity,sea_water_speed,upward_sea_water_velocity,qcFlag 
ADCP,ioos:station:wmo:42890:1,2012-03-01T00:03:00Z,27.6250,-90.4410,15.2,355.0,13.9,-9999.0,'11111222,11111222,99999999' 
ADCP,ioos:station:wmo:42890:1,2012-03-01T00:23:00Z,27.6250,-90.4410,15.2,338.0,15.1,-9999.0,'11111222,11111222,99999999' 
ADCP,ioos:station:wmo:42890:1,2012-03-01T00:43:00Z,27.6250,-90.4410,15.2,319.0,12.9,-9999.0,'11111222,11111222,99999999' 
ADCP,ioos:station:wmo:42890:1,2012-03-01T01:03:00Z,27.6250,-90.4410,15.2,320.0,11.4,-9999.0,'11111222,11111222,99999999' 
ADCP,ioos:station:wmo:42890:1,2012-03-01T01:23:00Z,27.6250,-90.4410,15.2,315.0,11.2,-9999.0,'11111222,11111222,99999999' 
ADCP,ioos:station:wmo:42890:1,2012-03-01T01:43:00Z,27.6250,-90.4410,15.2,309.0,11.4,-9999.0,'11111222,11111222,99999999' 
ADCP,ioos:station:wmo:42890:1,2012-03-01T02:03:00Z,27.6250,-90.4410,15.2,311.0,10.4,-9999.0,'11111222,11111222,99999999' 
ADCP,ioos:station:wmo:42890:1,2012-03-01T02:23:00Z,27.6250,-90.4410,15.2,330.0,8.4,-9999.0,'11133222,11111222,99999999' 
ADCP,ioos:station:wmo:42890:1,2012-03-01T02:43:00Z,27.6250,-90.4410,15.2,344.0,9.3,-9999.0,'11133222,11111222,99999999' 
ADCP,ioos:station:wmo:42890:1,2012-03-01T03:03:00Z,27.6250,-90.4410,15.2,317.0,11.2,-9999.0,'11111222,11111222,99999999' 
ADCP,ioos:station:wmo:42890:1,2012-03-01T03:23:00Z,27.6250,-90.4410,15.2,337.0,9.5,-9999.0,'11133222,11111222,99999999' 
ADCP,ioos:station:wmo:42890:1,2012-03-01T03:43:00Z,27.6250,-90.4410,15.2,359.0,8.7,-9999.0,'11133222,11111222,99999999' 
ADCP,ioos:station:wmo:42890:1,2012-03-01T04:03:00Z,27.6250,-90.4410,15.2,234.0,4.4,-9999.0,'11133222,11111222,99999999' 
ADCP,ioos:station:wmo:42890:1,2012-03-01T04:23:00Z,27.6250,-90.4410,15.2,293.0,7.6,-9999.0,'11133222,11111222,99999999' 
ADCP,ioos:station:wmo:42890:1,2012-03-01T04:43:00Z,27.6250,-90.4410,15.2,359.0,9.7,-9999.0,'11133222,11111222,99999999' 
ADCP,ioos:station:wmo:42890:1,2012-03-01T05:03:00Z,27.6250,-90.4410,15.2,356.0,11.0,-9999.0,'11111222,11111222,99999999' 
ADCP,ioos:station:wmo:42890:1,2012-03-01T05:23:00Z,27.6250,-90.4410,15.2,359.0,10.2,-9999.0,'11111222,11111222,99999999' 
ADCP,ioos:station:wmo:42890:1,2012-03-01T05:43:00Z,27.6250,-90.4410,15.2,330.0,8.4,-9999.0,'11133222,11111222,99999999' 
ADCP,ioos:station:wmo:42890:1,2012-03-01T06:03:00Z,27.6250,-90.4410,15.2,85.0,11.1,-9999.0,'11111222,11111222,99999999' 
ADCP,ioos:station:wmo:42890:1,2012-03-01T06:23:00Z,27.6250,-90.4410,15.2,41.0,7.2,-9999.0,'11133222,11111222,99999999' 
ADCP,ioos:station:wmo:42890:1,2012-03-01T06:43:00Z,27.6250,-90.4410,15.2,317.0,9.3,-9999.0,'11133222,11111222,99999999' 
ADCP,ioos:station:wmo:42890:1,2012-03-01T07:03:00Z,27.6250,-90.4410,15.2,28.0,7.0,-9999.0,'11133222,11111222,99999999' 
ADCP,ioos:station:wmo:42890:1,2012-03-01T07:23:00Z,27.6250,-90.4410,15.2,336.0,9.6,-9999.0,'11133222,11111222,99999999' 
ADCP,ioos:station:wmo:42890:1,2012-03-01T07:43:00Z,27.6250,-90.4410,15.2,317.0,17.9,-9999.0,'11111222,11111222,99999999' 
ADCP,ioos:station:wmo:42890:1,2012-03-01T08:03:00Z,27.6250,-90.4410,15.2,317.0,19.3,-9999.0,'11111222,11111222,99999999' 
ADCP,ioos:station:wmo:42890:1,2012-03-01T08:23:00Z,27.6250,-90.4410,15.2,332.0,14.7,-9999.0,'11111222,11111222,99999999' 
ADCP,ioos:station:wmo:42890:1,2012-03-01T08:43:00Z,27.6250,-90.4410,15.2,327.0,16.9,-9999.0,'11111222,11111222,99999999' 
ADCP,ioos:station:wmo:42890:1,2012-03-01T09:03:00Z,27.6250,-90.4410,15.2,337.0,16.7,-9999.0,'11111222,11111222,99999999' 
ADCP,ioos:station:wmo:42890:1,2012-03-01T09:23:00Z,27.6250,-90.4410,15.2,334.0,17.5,-9999.0,'11111222,11111222,99999999' 
ADCP,ioos:station:wmo:42890:1,2012-03-01T09:43:00Z,27.6250,-90.4410,15.2,341.0,17.2,-9999.0,'11111222,11111222,99999999' 
ADCP,ioos:station:wmo:42890:1,2012-03-01T10:03:00Z,27.6250,-90.4410,15.2,340.0,19.8,-9999.0,'11111222,11111222,99999999' 
ADCP,ioos:station:wmo:42890:1,2012-03-01T10:23:00Z,27.6250,-90.4410,15.2,340.0,20.0,-9999.0,'11111222,11111222,99999999' 
ADCP,ioos:station:wmo:42890:1,2012-03-01T10:43:00Z,27.6250,-90.4410,15.2,331.0,19.7,-9999.0,'11111222,11111222,99999999' 
ADCP,ioos:station:wmo:42890:1,2012-03-01T11:03:00Z,27.6250,-90.4410,15.2,343.0,14.9,-9999.0,'11111222,11111222,99999999' 
ADCP,ioos:station:wmo:42890:1,2012-03-01T11:23:00Z,27.6250,-90.4410,15.2,347.0,16.5,-9999.0,'11111222,11111222,99999999' 
ADCP,ioos:station:wmo:42890:1,2012-03-01T11:43:00Z,27.6250,-90.4410,15.2,350.0,23.2,-9999.0,'11111222,11111222,99999999' 
ADCP,ioos:station:wmo:42890:1,2012-03-01T12:03:00Z,27.6250,-90.4410,15.2,5.0,15.6,-9999.0,'11111222,11111222,99999999' 
ADCP,ioos:station:wmo:42890:1,2012-03-01T12:23:00Z,27.6250,-90.4410,15.2,345.0,17.6,-9999.0,'11111222,11111222,99999999' 
ADCP,ioos:station:wmo:42890:1,2012-03-01T12:43:00Z,27.6250,-90.4410,15.2,352.0,16.0,-9999.0,'11111222,11111222,99999999' 
ADCP,ioos:station:wmo:42890:1,2012-03-01T13:03:00Z,27.6250,-90.4410,15.2,357.0,14.2,-9999.0,'11111222,11111222,99999999' 
ADCP,ioos:station:wmo:42890:1,2012-03-01T13:23:00Z,27.6250,-90.4410,15.2,13.0,15.9,-9999.0,'11111222,11111222,99999999' 
ADCP,ioos:station:wmo:42890:1,2012-03-01T13:43:00Z,27.6250,-90.4410,15.2,356.0,15.2,-9999.0,'11111222,11111222,99999999' 
ADCP,ioos:station:wmo:42890:1,2012-03-01T14:03:00Z,27.6250,-90.4410,15.2,8.0,17.4,-9999.0,'11111222,11111222,99999999' 
ADCP,ioos:station:wmo:42890:1,2012-03-01T14:23:00Z,27.6250,-90.4410,15.2,3.0,17.4,-9999.0,'11111222,11111222,99999999' 
ADCP,ioos:station:wmo:42890:1,2012-03-01T14:43:00Z,27.6250,-90.4410,15.2,17.0,18.1,-9999.0,'11111222,11111222,99999999' 
ADCP,ioos:station:wmo:42890:1,2012-03-01T15:03:00Z,27.6250,-90.4410,15.2,16.0,19.2,-9999.0,'11111222,11111222,99999999' 
ADCP,ioos:station:wmo:42890:1,2012-03-01T15:23:00Z,27.6250,-90.4410,15.2,22.0,19.6,-9999.0,'11111222,11111222,99999999' 
ADCP,ioos:station:wmo:42890:1,2012-03-01T15:43:00Z,27.6250,-90.4410,15.2,11.0,20.3,-9999.0,'11111222,11111222,99999999' 
ADCP,ioos:station:wmo:42890:1,2012-03-01T16:03:00Z,27.6250,-90.4410,15.2,12.0,20.7,-9999.0,'11111222,11111222,99999999' 
ADCP,ioos:station:wmo:42890:1,2012-03-01T16:23:00Z,27.6250,-90.4410,15.2,5.0,23.2,-9999.0,'11111222,11111222,99999999' 
ADCP,ioos:station:wmo:42890:1,2012-03-01T16:43:00Z,27.6250,-90.4410,15.2,6.0,24.3,-9999.0,'11111222,11111222,99999999' 
ADCP,ioos:station:wmo:42890:1,2012-03-01T17:03:00Z,27.6250,-90.4410,15.2,6.0,23.4,-9999.0,'11111222,11111222,99999999' 
ADCP,ioos:station:wmo:42890:1,2012-03-01T17:23:00Z,27.6250,-90.4410,15.2,7.0,24.8,-9999.0,'11111222,11111222,99999999' 
ADCP,ioos:station:wmo:42890:1,2012-03-01T17:43:00Z,27.6250,-90.4410,15.2,355.0,22.9,-9999.0,'11111222,11111222,99999999' 
ADCP,ioos:station:wmo:42890:1,2012-03-01T18:03:00Z,27.6250,-90.4410,15.2,353.0,21.7,-9999.0,'11111222,11111222,99999999' 
ADCP,ioos:station:wmo:42890:1,2012-03-01T18:23:00Z,27.6250,-90.4410,15.2,11.0,25.6,-9999.0,'11111222,11111222,99999999' 
ADCP,ioos:station:wmo:42890:1,2012-03-01T18:43:00Z,27.6250,-90.4410,15.2,347.0,24.6,-9999.0,'11111222,11111222,99999999' 
ADCP,ioos:station:wmo:42890:1,2012-03-01T19:03:00Z,27.6250,-90.4410,15.2,351.0,23.0,-9999.0,'11111222,11111222,99999999' 
ADCP,ioos:station:wmo:42890:1,2012-03-01T19:23:00Z,27.6250,-90.4410,15.2,342.0,23.2,-9999.0,'11111222,11111222,99999999' 
ADCP,ioos:station:wmo:42890:1,2012-03-01T19:43:00Z,27.6250,-90.4410,15.2,0.0,23.6,-9999.0,'11111222,11111222,99999999' 
ADCP,ioos:station:wmo:42890:1,2012-03-01T20:03:00Z,27.6250,-90.4410,15.2,358.0,23.5,-9999.0,'11111222,11111222,99999999' 
ADCP,ioos:station:wmo:42890:1,2012-03-01T20:23:00Z,27.6250,-90.4410,15.2,1.0,22.9,-9999.0,'11111222,11111222,99999999' 
ADCP,ioos:station:wmo:42890:1,2012-03-01T20:43:00Z,27.6250,-90.4410,15.2,355.0,22.9,-9999.0,'11111222,11111222,99999999' 
ADCP,ioos:station:wmo:42890:1,2012-03-01T21:03:00Z,27.6250,-90.4410,15.2,356.0,25.7,-9999.0,'11111222,11111222,99999999' 
ADCP,ioos:station:wmo:42890:1,2012-03-01T21:23:00Z,27.6250,-90.4410,15.2,347.0,24.1,-9999.0,'11111222,11111222,99999999' 
ADCP,ioos:station:wmo:42890:1,2012-03-01T21:43:00Z,27.6250,-90.4410,15.2,354.0,25.0,-9999.0,'11111222,11111222,99999999' 
ADCP,ioos:station:wmo:42890:1,2012-03-01T22:03:00Z,27.6250,-90.4410,15.2,341.0,24.1,-9999.0,'11111222,11111222,99999999' 
ADCP,ioos:station:wmo:42890:1,2012-03-01T22:23:00Z,27.6250,-90.4410,15.2,353.0,23.6,-9999.0,'11111222,11111222,99999999' 
ADCP,ioos:station:wmo:42890:1,2012-03-01T22:43:00Z,27.6250,-90.4410,15.2,343.0,22.6,-9999.0,'11111222,11111222,99999999' 
ADCP,ioos:station:wmo:42890:1,2012-03-01T23:03:00Z,27.6250,-90.4410,15.2,355.0,21.6,-9999.0,'11111222,11111222,99999999' 
ADCP,ioos:station:wmo:42890:1,2012-03-01T23:23:00Z,27.6250,-90.4410,15.2,2.0,24.5,-9999.0,'11111222,11111222,99999999' 
ADCP,ioos:station:wmo:42890:1,2012-03-01T23:43:00Z,27.6250,-90.4410,15.2,338.0,24.4,-9999.0,'11111222,11111222,99999999' 
ADCP,ioos:station:wmo:42890:1,2012-03-02T00:03:00Z,27.6250,-90.4410,15.2,337.0,24.1,-9999.0,'11111222,11111222,99999999' 
ADCP,ioos:station:wmo:42890:1,2012-03-02T00:23:00Z,27.6250,-90.4410,15.2,356.0,27.7,-9999.0,'11111222,11111222,99999999' 
ADCP,ioos:station:wmo:42890:1,2012-03-02T00:43:00Z,27.6250,-90.4410,15.2,12.0,25.0,-9999.0,'11111222,11111222,99999999' 
ADCP,ioos:station:wmo:42890:1,2012-03-02T01:03:00Z,27.6250,-90.4410,15.2,16.0,25.1,-9999.0,'11111222,11111222,99999999' 
ADCP,ioos:station:wmo:42890:1,2012-03-02T01:23:00Z,27.6250,-90.4410,15.2,16.0,29.3,-9999.0,'11111222,11111222,99999999' 
ADCP,ioos:station:wmo:42890:1,2012-03-02T01:43:00Z,27.6250,-90.4410,15.2,24.0,35.8,-9999.0,'11111222,11111222,99999999' 
ADCP,ioos:station:wmo:42890:1,2012-03-02T02:03:00Z,27.6250,-90.4410,15.2,28.0,35.3,-9999.0,'11111222,11111222,99999999' 
ADCP,ioos:station:wmo:42890:1,2012-03-02T02:23:00Z,27.6250,-90.4410,15.2,32.0,39.6,-9999.0,'11111222,11111222,99999999' 
ADCP,ioos:station:wmo:42890:1,2012-03-02T02:43:00Z,27.6250,-90.4410,15.2,28.0,24.4,-9999.0,'11111222,11111222,99999999' 
ADCP,ioos:station:wmo:42890:1,2012-03-02T03:03:00Z,27.6250,-90.4410,15.2,13.0,18.7,-9999.0,'11111222,11111222,99999999' 
ADCP,ioos:station:wmo:42890:1,2012-03-02T03:23:00Z,27.6250,-90.4410,15.2,20.0,17.9,-9999.0,'11111222,11111222,99999999' 
ADCP,ioos:station:wmo:42890:1,2012-03-02T03:43:00Z,27.6250,-90.4410,15.2,20.0,17.8,-9999.0,'11111222,11111222,99999999' 
ADCP,ioos:station:wmo:42890:1,2012-03-02T04:03:00Z,27.6250,-90.4410,15.2,15.0,19.9,-9999.0,'11111222,11111222,99999999' 
ADCP,ioos:station:wmo:42890:1,2012-03-02T04:23:00Z,27.6250,-90.4410,15.2,20.0,22.7,-9999.0,'11111222,11111222,99999999' 
ADCP,ioos:station:wmo:42890:1,2012-03-02T04:43:00Z,27.6250,-90.4410,15.2,4.0,19.6,-9999.0,'11111222,11111222,99999999' 
ADCP,ioos:station:wmo:42890:1,2012-03-02T05:03:00Z,27.6250,-90.4410,15.2,15.0,22.8,-9999.0,'11111222,11111222,99999999' 
ADCP,ioos:station:wmo:42890:1,2012-03-02T05:23:00Z,27.6250,-90.4410,15.2,28.0,22.9,-9999.0,'11111222,11111222,99999999' 
ADCP,ioos:station:wmo:42890:1,2012-03-02T05:43:00Z,27.6250,-90.4410,15.2,19.0,20.8,-9999.0,'11111222,11111222,99999999' 
ADCP,ioos:station:wmo:42890:1,2012-03-02T06:03:00Z,27.6250,-90.4410,15.2,25.0,23.4,-9999.0,'11111222,11111222,99999999' 
ADCP,ioos:station:wmo:42890:1,2012-03-02T06:23:00Z,27.6250,-90.4410,15.2,21.0,25.5,-9999.0,'11111222,11111222,99999999' 
ADCP,ioos:station:wmo:42890:1,2012-03-02T06:43:00Z,27.6250,-90.4410,15.2,21.0,27.4,-9999.0,'11111222,11111222,99999999' 
ADCP,ioos:station:wmo:42890:1,2012-03-02T07:23:00Z,27.6250,-90.4410,15.2,9.0,37.1,-9999.0,'11111222,11111222,99999999' 
ADCP,ioos:station:wmo:42890:1,2012-03-02T07:43:00Z,27.6250,-90.4410,15.2,11.0,32.4,-9999.0,'11111222,11111222,99999999' 
ADCP,ioos:station:wmo:42890:1,2012-03-02T08:03:00Z,27.6250,-90.4410,15.2,17.0,35.8,-9999.0,'11111222,11111222,99999999' 
ADCP,ioos:station:wmo:42890:1,2012-03-02T08:23:00Z,27.6250,-90.4410,15.2,9.0,38.8,-9999.0,'11111222,11111222,99999999' 
ADCP,ioos:station:wmo:42890:1,2012-03-02T08:43:00Z,27.6250,-90.4410,15.2,3.0,40.3,-9999.0,'11111222,11111222,99999999' 
ADCP,ioos:station:wmo:42890:1,2012-03-02T09:03:00Z,27.6250,-90.4410,15.2,6.0,44.3,-9999.0,'11111222,11111222,99999999' 
ADCP,ioos:station:wmo:42890:1,2012-03-02T09:23:00Z,27.6250,-90.4410,15.2,11.0,44.8,-9999.0,'11111222,11111222,99999999' 
ADCP,ioos:station:wmo:42890:1,2012-03-02T09:43:00Z,27.6250,-90.4410,15.2,17.0,44.6,-9999.0,'11111222,11111222,99999999' 
ADCP,ioos:station:wmo:42890:1,2012-03-02T10:03:00Z,27.6250,-90.4410,15.2,13.0,43.0,-9999.0,'11111222,11111222,99999999' 
ADCP,ioos:station:wmo:42890:1,2012-03-02T10:23:00Z,27.6250,-90.4410,15.2,19.0,45.4,-9999.0,'11111222,11111222,99999999' 
ADCP,ioos:station:wmo:42890:1,2012-03-02T10:43:00Z,27.6250,-90.4410,15.2,16.0,45.1,-9999.0,'11111222,11111222,99999999' 
ADCP,ioos:station:wmo:42890:1,2012-03-02T11:03:00Z,27.6250,-90.4410,15.2,21.0,47.1,-9999.0,'11111222,11111222,99999999' 
ADCP,ioos:station:wmo:42890:1,2012-03-02T11:23:00Z,27.6250,-90.4410,15.2,25.0,46.4,-9999.0,'11111222,11111222,99999999' 
ADCP,ioos:station:wmo:42890:1,2012-03-02T11:43:00Z,27.6250,-90.4410,15.2,31.0,48.3,-9999.0,'11111222,11111222,99999999' 
ADCP,ioos:station:wmo:42890:1,2012-03-02T12:03:00Z,27.6250,-90.4410,15.2,23.0,43.0,-9999.0,'11111222,11111222,99999999' 
ADCP,ioos:station:wmo:42890:1,2012-03-02T12:23:00Z,27.6250,-90.4410,15.2,12.0,39.2,-9999.0,'11111222,11111222,99999999' 
ADCP,ioos:station:wmo:42890:1,2012-03-02T12:43:00Z,27.6250,-90.4410,15.2,17.0,36.3,-9999.0,'11111222,11111222,99999999' 
ADCP,ioos:station:wmo:42890:1,2012-03-02T13:03:00Z,27.6250,-90.4410,15.2,20.0,38.5,-9999.0,'11111222,11111222,99999999' 
ADCP,ioos:station:wmo:42890:1,2012-03-02T13:23:00Z,27.6250,-90.4410,15.2,22.0,39.1,-9999.0,'11111222,11111222,99999999' 
ADCP,ioos:station:wmo:42890:1,2012-03-02T13:43:00Z,27.6250,-90.4410,15.2,29.0,40.1,-9999.0,'11111222,11111222,99999999' 
ADCP,ioos:station:wmo:42890:1,2012-03-02T14:03:00Z,27.6250,-90.4410,15.2,32.0,37.5,-9999.0,'11111222,11111222,99999999' 
ADCP,ioos:station:wmo:42890:1,2012-03-02T14:23:00Z,27.6250,-90.4410,15.2,28.0,39.7,-9999.0,'11111222,11111222,99999999' 
ADCP,ioos:station:wmo:42890:1,2012-03-02T14:43:00Z,27.6250,-90.4410,15.2,39.0,43.5,-9999.0,'11111222,11111222,99999999' 
ADCP,ioos:station:wmo:42890:1,2012-03-02T15:03:00Z,27.6250,-90.4410,15.2,40.0,44.9,-9999.0,'11111222,11111222,99999999' 
ADCP,ioos:station:wmo:42890:1,2012-03-02T15:23:00Z,27.6250,-90.4410,15.2,38.0,43.9,-9999.0,'11111222,11111222,99999999' 
ADCP,ioos:station:wmo:42890:1,2012-03-02T15:43:00Z,27.6250,-90.4410,15.2,38.0,43.7,-9999.0,'11111222,11111222,99999999' 
ADCP,ioos:station:wmo:42890:1,2012-03-02T16:03:00Z,27.6250,-90.4410,15.2,38.0,46.6,-9999.0,'11111222,11111222,99999999' 
ADCP,ioos:station:wmo:42890:1,2012-03-02T16:23:00Z,27.6250,-90.4410,15.2,43.0,49.8,-9999.0,'11111222,11111222,99999999' 
ADCP,ioos:station:wmo:42890:1,2012-03-02T16:43:00Z,27.6250,-90.4410,15.2,42.0,51.4,-9999.0,'11111222,11111222,99999999' 
ADCP,ioos:station:wmo:42890:1,2012-03-02T17:03:00Z,27.6250,-90.4410,15.2,43.0,51.1,-9999.0,'11111222,11111222,99999999' 
ADCP,ioos:station:wmo:42890:1,2012-03-02T17:23:00Z,27.6250,-90.4410,15.2,48.0,57.0,-9999.0,'11111222,11111222,99999999' 
ADCP,ioos:station:wmo:42890:1,2012-03-02T17:43:00Z,27.6250,-90.4410,15.2,42.0,47.4,-9999.0,'11111222,11111222,99999999' 
ADCP,ioos:station:wmo:42890:1,2012-03-02T18:03:00Z,27.6250,-90.4410,15.2,46.0,55.6,-9999.0,'11111222,11111222,99999999' 
ADCP,ioos:station:wmo:42890:1,2012-03-02T18:23:00Z,27.6250,-90.4410,15.2,42.0,46.5,-9999.0,'11111222,11111222,99999999' 
ADCP,ioos:station:wmo:42890:1,2012-03-02T18:43:00Z,27.6250,-90.4410,15.2,42.0,50.4,-9999.0,'11111222,11111222,99999999' 
ADCP,ioos:station:wmo:42890:1,2012-03-02T19:03:00Z,27.6250,-90.4410,15.2,42.0,52.3,-9999.0,'11111222,11111222,99999999' 
ADCP,ioos:station:wmo:42890:1,2012-03-02T19:23:00Z,27.6250,-90.4410,15.2,40.0,46.4,-9999.0,'11111222,11111222,99999999' 
ADCP,ioos:station:wmo:42890:1,2012-03-02T19:43:00Z,27.6250,-90.4410,15.2,40.0,54.0,-9999.0,'11111222,11111222,99999999' 
ADCP,ioos:station:wmo:42890:1,2012-03-02T20:03:00Z,27.6250,-90.4410,15.2,38.0,48.5,-9999.0,'11111222,11111222,99999999' 
ADCP,ioos:station:wmo:42890:1,2012-03-02T20:23:00Z,27.6250,-90.4410,15.2,36.0,46.4,-9999.0,'11111222,11111222,99999999' 
ADCP,ioos:station:wmo:42890:1,2012-03-02T20:43:00Z,27.6250,-90.4410,15.2,33.0,41.0,-9999.0,'11111222,11111222,99999999' 
ADCP,ioos:station:wmo:42890:1,2012-03-02T21:03:00Z,27.6250,-90.4410,15.2,33.0,41.1,-9999.0,'11111222,11111222,99999999' 
ADCP,ioos:station:wmo:42890:1,2012-03-02T21:23:00Z,27.6250,-90.4410,15.2,31.0,41.4,-9999.0,'11111222,11111222,99999999' 
ADCP,ioos:station:wmo:42890:1,2012-03-02T21:43:00Z,27.6250,-90.4410,15.2,27.0,38.5,-9999.0,'11111222,11111222,99999999' 
ADCP,ioos:station:wmo:42890:1,2012-03-02T22:03:00Z,27.6250,-90.4410,15.2,33.0,43.5,-9999.0,'11111222,11111222,99999999' 
ADCP,ioos:station:wmo:42890:1,2012-03-02T22:23:00Z,27.6250,-90.4410,15.2,20.0,36.3,-9999.0,'11111222,11111222,99999999' 
ADCP,ioos:station:wmo:42890:1,2012-03-02T22:43:00Z,27.6250,-90.4410,15.2,38.0,45.8,-9999.0,'11111222,11111222,99999999' 
ADCP,ioos:station:wmo:42890:1,2012-03-02T23:03:00Z,27.6250,-90.4410,15.2,39.0,47.3,-9999.0,'11111222,11111222,99999999' 
ADCP,ioos:station:wmo:42890:1,2012-03-02T23:23:00Z,27.6250,-90.4410,15.2,38.0,47.2,-9999.0,'11111222,11111222,99999999' 
ADCP,ioos:station:wmo:42890:1,2012-03-02T23:43:00Z,27.6250,-90.4410,15.2,39.0,46.8,-9999.0,'11111222,11111222,99999999' 
ADCP,ioos:station:wmo:42890:1,2012-03-03T00:03:00Z,27.6250,-90.4410,15.2,39.0,47.3,-9999.0,'11111222,11111222,99999999' 
ADCP,ioos:station:wmo:42890:1,2012-03-03T00:23:00Z,27.6250,-90.4410,15.2,44.0,47.7,-9999.0,'11111222,11111222,99999999' 
ADCP,ioos:station:wmo:42890:1,2012-03-03T00:43:00Z,27.6250,-90.4410,15.2,49.0,42.3,-9999.0,'11111222,11111222,99999999' 
ADCP,ioos:station:wmo:42890:1,2012-03-03T01:03:00Z,27.6250,-90.4410,15.2,52.0,40.9,-9999.0,'11111222,11111222,99999999' 
ADCP,ioos:station:wmo:42890:1,2012-03-03T01:23:00Z,27.6250,-90.4410,15.2,50.0,40.6,-9999.0,'11111222,11111222,99999999' 
ADCP,ioos:station:wmo:42890:1,2012-03-03T01:43:00Z,27.6250,-90.4410,15.2,49.0,36.8,-9999.0,'11111222,11111222,99999999' 
ADCP,ioos:station:wmo:42890:1,2012-03-03T02:03:00Z,27.6250,-90.4410,15.2,49.0,37.1,-9999.0,'11111222,11111222,99999999' 
ADCP,ioos:station:wmo:42890:1,2012-03-03T02:23:00Z,27.6250,-90.4410,15.2,49.0,38.1,-9999.0,'11111222,11111222,99999999' 
ADCP,ioos:station:wmo:42890:1,2012-03-03T02:43:00Z,27.6250,-90.4410,15.2,50.0,39.0,-9999.0,'11111222,11111222,99999999' 
ADCP,ioos:station:wmo:42890:1,2012-03-03T03:03:00Z,27.6250,-90.4410,15.2,49.0,38.1,-9999.0,'11111222,11111222,99999999' 
ADCP,ioos:station:wmo:42890:1,2012-03-03T03:23:00Z,27.6250,-90.4410,15.2,45.0,35.4,-9999.0,'11111222,11111222,99999999' 
ADCP,ioos:station:wmo:42890:1,2012-03-03T03:43:00Z,27.6250,-90.4410,15.2,45.0,34.1,-9999.0,'11111222,11111222,99999999' 
ADCP,ioos:station:wmo:42890:1,2012-03-03T04:03:00Z,27.6250,-90.4410,15.2,44.0,32.6,-9999.0,'11111222,11111222,99999999' 
ADCP,ioos:station:wmo:42890:1,2012-03-03T04:23:00Z,27.6250,-90.4410,15.2,50.0,37.0,-9999.0,'11111222,11111222,99999999' 
ADCP,ioos:station:wmo:42890:1,2012-03-03T04:43:00Z,27.6250,-90.4410,15.2,50.0,38.0,-9999.0,'11111222,11111222,99999999' 
ADCP,ioos:station:wmo:42890:1,2012-03-03T05:03:00Z,27.6250,-90.4410,15.2,51.0,39.0,-9999.0,'11111222,11111222,99999999' 
ADCP,ioos:station:wmo:42890:1,2012-03-03T05:23:00Z,27.6250,-90.4410,15.2,51.0,37.1,-9999.0,'11111222,11111222,99999999' 
ADCP,ioos:station:wmo:42890:1,2012-03-03T05:43:00Z,27.6250,-90.4410,15.2,50.0,36.7,-9999.0,'11111222,11111222,99999999' 
ADCP,ioos:station:wmo:42890:1,2012-03-03T06:03:00Z,27.6250,-90.4410,15.2,48.0,38.2,-9999.0,'11111222,11111222,99999999' 
ADCP,ioos:station:wmo:42890:1,2012-03-03T06:23:00Z,27.6250,-90.4410,15.2,46.0,35.4,-9999.0,'11111222,11111222,99999999' 
ADCP,ioos:station:wmo:42890:1,2012-03-03T06:43:00Z,27.6250,-90.4410,15.2,38.0,32.4,-9999.0,'11111222,11111222,99999999' 
ADCP,ioos:station:wmo:42890:1,2012-03-03T07:03:00Z,27.6250,-90.4410,15.2,45.0,36.1,-9999.0,'11111222,11111222,99999999' 
ADCP,ioos:station:wmo:42890:1,2012-03-03T07:23:00Z,27.6250,-90.4410,15.2,41.0,35.8,-9999.0,'11111222,11111222,99999999' 
ADCP,ioos:station:wmo:42890:1,2012-03-03T07:43:00Z,27.6250,-90.4410,15.2,29.0,31.9,-9999.0,'11111222,11111222,99999999' 
ADCP,ioos:station:wmo:42890:1,2012-03-03T08:03:00Z,27.6250,-90.4410,15.2,43.0,37.1,-9999.0,'11111222,11111222,99999999' 
ADCP,ioos:station:wmo:42890:1,2012-03-03T08:23:00Z,27.6250,-90.4410,15.2,40.0,34.6,-9999.0,'11111222,11111222,99999999' 
ADCP,ioos:station:wmo:42890:1,2012-03-03T08:43:00Z,27.6250,-90.4410,15.2,37.0,31.4,-9999.0,'11111222,11111222,99999999' 
ADCP,ioos:station:wmo:42890:1,2012-03-03T09:03:00Z,27.6250,-90.4410,15.2,35.0,31.1,-9999.0,'11111222,11111222,99999999' 
ADCP,ioos:station:wmo:42890:1,2012-03-03T09:23:00Z,27.6250,-90.4410,15.2,27.0,26.7,-9999.0,'11111222,11111222,99999999' 
ADCP,ioos:station:wmo:42890:1,2012-03-03T09:43:00Z,27.6250,-90.4410,15.2,20.0,32.0,-9999.0,'11111222,11111222,99999999' 
ADCP,ioos:station:wmo:42890:1,2012-03-03T10:03:00Z,27.6250,-90.4410,15.2,24.0,31.6,-9999.0,'11111222,11111222,99999999' 
ADCP,ioos:station:wmo:42890:1,2012-03-03T10:23:00Z,27.6250,-90.4410,15.2,22.0,34.0,-9999.0,'11111222,11111222,99999999' 
ADCP,ioos:station:wmo:42890:1,2012-03-03T10:43:00Z,27.6250,-90.4410,15.2,23.0,32.8,-9999.0,'11111222,11111222,99999999' 
ADCP,ioos:station:wmo:42890:1,2012-03-03T11:03:00Z,27.6250,-90.4410,15.2,25.0,32.0,-9999.0,'11111222,11111222,99999999' 
ADCP,ioos:station:wmo:42890:1,2012-03-03T11:23:00Z,27.6250,-90.4410,15.2,22.0,33.2,-9999.0,'11111222,11111222,99999999' 
ADCP,ioos:station:wmo:42890:1,2012-03-03T11:43:00Z,27.6250,-90.4410,15.2,15.0,45.9,-9999.0,'11111222,11111222,99999999' 
ADCP,ioos:station:wmo:42890:1,2012-03-03T12:03:00Z,27.6250,-90.4410,15.2,7.0,41.2,-9999.0,'11111222,11111222,99999999' 
ADCP,ioos:station:wmo:42890:1,2012-03-03T12:23:00Z,27.6250,-90.4410,15.2,6.0,43.5,-9999.0,'11111222,11111222,99999999' 
ADCP,ioos:station:wmo:42890:1,2012-03-03T12:43:00Z,27.6250,-90.4410,15.2,1.0,45.3,-9999.0,'11111222,11111222,99999999' 
ADCP,ioos:station:wmo:42890:1,2012-03-03T13:03:00Z,27.6250,-90.4410,15.2,358.0,42.3,-9999.0,'11111222,11111222,99999999' 
ADCP,ioos:station:wmo:42890:1,2012-03-03T13:23:00Z,27.6250,-90.4410,15.2,359.0,43.8,-9999.0,'11111222,11111222,99999999' 
ADCP,ioos:station:wmo:42890:1,2012-03-03T13:43:00Z,27.6250,-90.4410,15.2,357.0,42.8,-9999.0,'11111222,11111222,99999999' 
ADCP,ioos:station:wmo:42890:1,2012-03-03T14:03:00Z,27.6250,-90.4410,15.2,3.0,43.2,-9999.0,'11111222,11111222,99999999' 
ADCP,ioos:station:wmo:42890:1,2012-03-03T14:23:00Z,27.6250,-90.4410,15.2,351.0,46.8,-9999.0,'11111222,11111222,99999999' 
ADCP,ioos:station:wmo:42890:1,2012-03-03T14:43:00Z,27.6250,-90.4410,15.2,348.0,47.1,-9999.0,'11111222,11111222,99999999' 
ADCP,ioos:station:wmo:42890:1,2012-03-03T15:03:00Z,27.6250,-90.4410,15.2,10.0,55.3,-9999.0,'11111222,11111222,99999999' 
ADCP,ioos:station:wmo:42890:1,2012-03-03T15:23:00Z,27.6250,-90.4410,15.2,2.0,48.2,-9999.0,'11111222,11111222,99999999' 
ADCP,ioos:station:wmo:42890:1,2012-03-03T15:43:00Z,27.6250,-90.4410,15.2,354.0,51.3,-9999.0,'11111222,11111222,99999999' 
ADCP,ioos:station:wmo:42890:1,2012-03-03T16:03:00Z,27.6250,-90.4410,15.2,359.0,58.6,-9999.0,'11111222,11111222,99999999' 
ADCP,ioos:station:wmo:42890:1,2012-03-03T16:23:00Z,27.6250,-90.4410,15.2,358.0,51.7,-9999.0,'11111222,11111222,99999999' 
ADCP,ioos:station:wmo:42890:1,2012-03-03T16:43:00Z,27.6250,-90.4410,15.2,11.0,55.2,-9999.0,'11111222,11111222,99999999' 
ADCP,ioos:station:wmo:42890:1,2012-03-03T17:03:00Z,27.6250,-90.4410,15.2,352.0,58.2,-9999.0,'11111222,11111222,99999999' 
ADCP,ioos:station:wmo:42890:1,2012-03-03T17:23:00Z,27.6250,-90.4410,15.2,359.0,58.4,-9999.0,'11111222,11111222,99999999' 